Content
SEND FEEDBACK

Daily
Averages
Monthly
Summary
United States of America

YIGO, GUAM


Home > North America > United States > Guam
Elevation: 530 feet     Latitude: 13 32N     Longitude: 144 53E

WEATHER
 
SELECT A DAY
Number of Records: 208,997;   Date Range: 1/1/95 - 7/26/14
 
SHARE

PRINT THIS DATA

[ ← Previous Day ]
WEATHER ALMANAC - DECEMBER 16, 2013
[ Next Day → ]
[ °C ]   °F
Weather ElementAverageHighLow
Temperature82.1 °F86 °F (11:54 am)77 °F (10:54 pm)
Dewpoint73.2 °F75 °F (1:54 am)71.1 °F (12:54 pm)
Humidity75 %90 % (3:54 am)61 % (2:54 pm)
Barometer29.82 in29.87 in (9:42 am)29.77 in (2:54 pm)
Wind Speed11.8 mph18.4 mph (9:42 am)
Wind Gust26.5 mph (9:42 am)
Weather ElementAverage
Visibility10 mi
Wind DirectionENE (56.9 °)

Weather ElementTotal
Precipitation0.02 in
Cooling Degree Days16.5 (Base 65)
Growing Degree Days31.5 (Base 50)
Averaged from 29 records on December 16, 2013
WEATHER CONDITIONS BREAKOUT
WIND DIRECTION BREAKOUT
WEATHER BY HOUR - DECEMBER 16, 2013
[ °C ]   °F
Local TimeTemperatureDewpointHumidityBarometerVisibilityWind DirectionWind SpeedGust SpeedPrecipitationEventsConditions
1:54 AM79.0 °F75.0 °F88 %29.83 in10.0 miNE (40°)9.2 mphMostly Cloudy
2:54 AM79.0 °F75.0 °F88 %29.81 in10.0 miENE (60°)9.2 mphMostly Cloudy
3:54 AM78.1 °F75.0 °F90 %29.80 in10.0 miNE (50°)8.1 mph0.01 inScattered Clouds
4:54 AM79.0 °F75.0 °F88 %29.81 in10.0 miENE (70°)9.2 mphPartly Cloudy
5:54 AM78.1 °F72.0 °F81 %29.81 in10.0 miENE (70°)13.8 mph0.01 inMostly Cloudy
6:54 AM79.0 °F73.9 °F84 %29.82 in10.0 miENE (60°)10.4 mphMostly Cloudy
7:54 AM81.0 °F75.0 °F82 %29.83 in10.0 miENE (70°)10.4 mphScattered Clouds
8:54 AM82.0 °F75.0 °F79 %29.85 in10.0 miENE (70°)11.5 mph0.00 inPartly Cloudy
9:42 AM84.2 °F73.4 °F70 %29.87 in10.0 miENE (60°)18.4 mph26.5 mphMostly Cloudy
9:52 AM84.2 °F73.4 °F70 %29.87 in10.0 miENE (70°)15.0 mph23.0 mphScattered Clouds
9:54 AM84.0 °F73.9 °F72 %29.85 in10.0 miEast (80°)15.0 mphScattered Clouds
10:54 AM84.9 °F73.9 °F69 %29.84 in10.0 miEast (90°)11.5 mph23.0 mphPartly Cloudy
11:54 AM86.0 °F73.9 °F67 %29.82 in10.0 miENE (60°)13.8 mphScattered Clouds
12:05 PM86.0 °F73.4 °F66 %29.84 in10.0 miEast (80°)16.1 mphMostly Cloudy
12:23 PM86.0 °F71.6 °F62 %29.83 in10.0 miENE (60°)17.3 mphScattered Clouds
12:54 PM84.9 °F71.1 °F63 %29.80 in10.0 miENE (70°)15.0 mphScattered Clouds
1:54 PM86.0 °F73.0 °F65 %29.78 in10.0 miENE (60°)15.0 mphScattered Clouds
2:05 PM86.0 °F73.4 °F66 %29.80 in10.0 miENE (70°)13.8 mphMostly Cloudy
2:29 PM86.0 °F71.6 °F62 %29.79 in10.0 miENE (60°)13.8 mphScattered Clouds
2:54 PM86.0 °F71.1 °F61 %29.77 in10.0 miNE (50°)13.8 mphScattered Clouds
3:54 PM84.9 °F72.0 °F65 %29.77 in10.0 miENE (60°)16.1 mphScattered Clouds
4:54 PM82.9 °F72.0 °F69 %29.79 in10.0 miNE (40°)13.8 mphPartly Cloudy
5:54 PM81.0 °F73.0 °F77 %29.80 in10.0 miNE (40°)13.8 mphMostly Cloudy
6:54 PM80.1 °F73.0 °F79 %29.80 in10.0 miNE (40°)8.1 mphMostly Cloudy
7:54 PM80.1 °F73.0 °F79 %29.82 in10.0 miNE (40°)5.8 mphPartly Cloudy
8:54 PM79.0 °F73.0 °F82 %29.83 in10.0 miNNE (30°)8.1 mphClear
9:54 PM78.1 °F73.0 °F84 %29.83 in10.0 miNNE (30°)3.5 mphPartly Cloudy
10:54 PM77.0 °F72.0 °F84 %29.83 in10.0 miNNE (20°)5.8 mphClear
11:54 PM78.1 °F73.0 °F84 %29.81 in10.0 miNE (50°)8.1 mphClear
Hourly data recorded from PGUM, located miles away from Yigo, Guam







STORIES FROM OUR PARTNERS